Location: Mountain Grove
(34.0887°N, 86.6172°W)
Time: 14:55:29
(UTC+00:00)

Okean 2 - Pass Details

Date: 14 July 2020
Orbit: 559 x 578 km, 82.5° (Epoch: 12 August)

Event Time Altitude Azimuth Distance (km) Brightness Sun altitude
Rises 08:59:47 0° 359° (N) 2,753 7.6 -18.7°
Reaches altitude 10° 09:02:01 10° 5° (N) 1,852 6.7 -18.4°
Maximum altitude 09:05:58 49° 81° (E) 723 4.2 -17.8°
Drops below altitude 10° 09:09:54 10° 157° (SSE) 1,838 5.8 -17.2°
Enters shadow 09:10:47 - 160° (SSE) 2,186 6.2 -17.0°
